Location: Bad Dürkheim
(49.4618°N, 8.1724°E)
Time: 05:34:34
(UTC+00:00)

Cosmos 1190 Rocket - Pass Details

Date: 14 June 2025
Orbit: 753 x 775 km, 74.1° (Epoch: 12 July)

Event Time Altitude Azimuth Distance (km) Brightness Sun altitude
Exits shadow 23:12:30 28° 195° (SSW) 1,417 4.8 -17.1°
Maximum altitude 23:15:20 80° 111° (ESE) 790 4.0 -17.2°
Drops below altitude 10° 23:20:37 10° 25° (NNE) 2,324 7.5 -17.2°
Sets 23:23:00 0° 25° (NNE) 3,252 8.4 -17.2°
